• en Belgique
  • Liste des pays
  • À 7 jours
  • Température de l'eau
  • Carte satellitaire
  • Carte météo
  • Widgets météo
  • user-avatar
    Se connecter

    Météo par heure à Annaba

    Ce jour, 21 Novembre, Mardi

    Heure Température Précipitation Vent Pression Humidité
    00:00 +14°C° 0 mm 2 m/s 765 mmHg 72%
    01:00 +14°C° 0 mm 2 m/s 765 mmHg 70%
    02:00 +14°C° 0 mm 2 m/s 765 mmHg 67%
    03:00 +14°C° 0 mm 2 m/s 765 mmHg 65%
    04:00 +13°C° 0 mm 2 m/s 765 mmHg 62%
    05:00 +13°C° 0 mm 2 m/s 765 mmHg 60%
    06:00 +13°C° 0 mm 2 m/s 765 mmHg 57%
    07:00 +13°C° 0 mm 2 m/s 765 mmHg 54%
    08:00 +15°C° 0 mm 2 m/s 765 mmHg 49%
    09:00 +16°C° 0 mm 2 m/s 765 mmHg 45%
    10:00 +18°C° 0 mm 2 m/s 765 mmHg 40%
    11:00 +19°C° 0 mm 2 m/s 765 mmHg 38%
    12:00 +20°C° 0 mm 2 m/s 765 mmHg 35%
    13:00 +23°C° 0 mm 1 m/s 764 mmHg 33%
    14:00 +22°C° 0 mm 1 m/s 764 mmHg 36%
    15:00 +22°C° 0 mm 1 m/s 764 mmHg 40%
    16:00 +21°C° 0 mm 1 m/s 764 mmHg 43%
    17:00 +20°C° 0 mm 1 m/s 764 mmHg 49%
    18:00 +18°C° 0 mm 1 m/s 764 mmHg 54%
    19:00 +15°C° 0 mm 1 m/s 764 mmHg 60%
    20:00 +15°C° 0 mm 1 m/s 764 mmHg 59%
    21:00 +15°C° 0 mm 1 m/s 764 mmHg 59%
    22:00 +15°C° 0 mm 1 m/s 764 mmHg 58%
    23:00 +14°C° 0 mm 1 m/s 764 mmHg 57%

    Demain, 22 Novembre, Mercredi

    Heure Température Précipitation Vent Pression Humidité
    00:00 +14°C° 0 mm 2 m/s 764 mmHg 55%
    01:00 +14°C° 0 mm 2 m/s 764 mmHg 53%
    02:00 +14°C° 0 mm 2 m/s 764 mmHg 51%
    03:00 +14°C° 0 mm 2 m/s 763 mmHg 49%
    04:00 +14°C° 0 mm 2 m/s 763 mmHg 47%
    05:00 +14°C° 0 mm 2 m/s 763 mmHg 46%
    06:00 +14°C° 0 mm 2 m/s 763 mmHg 44%
    07:00 +14°C° 0 mm 2 m/s 763 mmHg 42%
    08:00 +15°C° 0 mm 2 m/s 763 mmHg 40%
    09:00 +17°C° 0 mm 2 m/s 763 mmHg 38%
    10:00 +19°C° 0 mm 2 m/s 763 mmHg 36%
    11:00 +20°C° 0 mm 2 m/s 763 mmHg 34%
    12:00 +23°C° 0 mm 2 m/s 762 mmHg 32%
    13:00 +24°C° 0 mm 1 m/s 762 mmHg 29%
    14:00 +24°C° 0 mm 2 m/s 762 mmHg 33%
    15:00 +23°C° 0 mm 2 m/s 761 mmHg 37%
    16:00 +23°C° 0 mm 2 m/s 761 mmHg 41%
    17:00 +20°C° 0 mm 2 m/s 761 mmHg 43%
    18:00 +19°C° 0 mm 2 m/s 761 mmHg 45%
    19:00 +17°C° 0 mm 2 m/s 761 mmHg 46%
    20:00 +17°C° 0 mm 2 m/s 761 mmHg 46%
    21:00 +16°C° 0 mm 2 m/s 762 mmHg 45%
    22:00 +16°C° 0 mm 2 m/s 762 mmHg 44%
    23:00 +16°C° 0 mm 2 m/s 762 mmHg 43%

    Après-demain, 23 Novembre, Jeudi

    Heure Température Précipitation Vent Pression Humidité
    00:00 +16°C° 0 mm 2 m/s 762 mmHg 42%
    01:00 +15°C° 0 mm 2 m/s 762 mmHg 41%
    02:00 +15°C° 0 mm 2 m/s 761 mmHg 41%
    03:00 +15°C° 0 mm 2 m/s 761 mmHg 41%
    04:00 +15°C° 0 mm 2 m/s 761 mmHg 41%
    05:00 +15°C° 0 mm 2 m/s 762 mmHg 40%
    06:00 +15°C° 0 mm 2 m/s 762 mmHg 40%
    07:00 +14°C° 0 mm 2 m/s 762 mmHg 40%
    08:00 +16°C° 0 mm 2 m/s 762 mmHg 39%
    09:00 +17°C° 0 mm 2 m/s 763 mmHg 38%
    10:00 +19°C° 0 mm 2 m/s 763 mmHg 37%
    11:00 +20°C° 0 mm 2 m/s 763 mmHg 35%
    12:00 +22°C° 0 mm 1 m/s 763 mmHg 33%
    13:00 +23°C° 0 mm 1 m/s 763 mmHg 31%
    14:00 +21°C° 0 mm 2 m/s 763 mmHg 35%
    15:00 +21°C° 0 mm 2 m/s 763 mmHg 40%
    16:00 +20°C° 0 mm 2 m/s 763 mmHg 44%
    17:00 +20°C° 0 mm 1 m/s 763 mmHg 48%
    18:00 +18°C° 0 mm 1 m/s 764 mmHg 53%
    19:00 +15°C° 0 mm 0 m/s 764 mmHg 58%
    20:00 +16°C° 0 mm 1 m/s 764 mmHg 57%
    21:00 +15°C° 0 mm 1 m/s 765 mmHg 56%
    22:00 +15°C° 0 mm 1 m/s 765 mmHg 55%
    23:00 +15°C° 0 mm 1 m/s 765 mmHg 54%

    24 Novembre, Vendredi

    Heure Température Précipitation Vent Pression Humidité
    00:00 +15°C° 0 mm 1 m/s 765 mmHg 53%
    01:00 +14°C° 0 mm 2 m/s 765 mmHg 52%
    02:00 +14°C° 0 mm 1 m/s 765 mmHg 52%
    03:00 +14°C° 0 mm 1 m/s 765 mmHg 51%
    04:00 +14°C° 0 mm 1 m/s 764 mmHg 50%
    05:00 +14°C° 0 mm 1 m/s 765 mmHg 50%
    06:00 +14°C° 0 mm 1 m/s 765 mmHg 50%
    07:00 +14°C° 0 mm 2 m/s 765 mmHg 50%
    08:00 +15°C° 0 mm 1 m/s 765 mmHg 47%
    09:00 +18°C° 0 mm 1 m/s 765 mmHg 44%
    10:00 +20°C° 0 mm 1 m/s 766 mmHg 41%
    11:00 +21°C° 0 mm 1 m/s 765 mmHg 39%
    12:00 +22°C° 0 mm 1 m/s 765 mmHg 37%
    13:00 +23°C° 0 mm 1 m/s 765 mmHg 36%
    14:00 +23°C° 0 mm 2 m/s 764 mmHg 39%
    15:00 +23°C° 0 mm 2 m/s 764 mmHg 42%
    16:00 +21°C° 0 mm 3 m/s 764 mmHg 45%
    17:00 +20°C° 0 mm 3 m/s 764 mmHg 50%
    18:00 +18°C° 0 mm 3 m/s 764 mmHg 54%
    19:00 +17°C° 0 mm 3 m/s 764 mmHg 58%
    20:00 +17°C° 0 mm 3 m/s 765 mmHg 57%
    21:00 +16°C° 0 mm 3 m/s 765 mmHg 57%
    22:00 +16°C° 0 mm 3 m/s 765 mmHg 56%
    23:00 +16°C° 0 mm 3 m/s 765 mmHg 55%

    25 Novembre, Samedi

    Heure Température Précipitation Vent Pression Humidité
    00:00 +16°C° 0 mm 3 m/s 765 mmHg 55%
    01:00 +16°C° 0 mm 3 m/s 765 mmHg 54%
    02:00 +16°C° 0 mm 3 m/s 765 mmHg 56%
    03:00 +14°C° 0 mm 3 m/s 764 mmHg 57%
    04:00 +14°C° 0 mm 3 m/s 764 mmHg 59%
    05:00 +14°C° 0 mm 3 m/s 764 mmHg 61%
    06:00 +14°C° 0 mm 3 m/s 764 mmHg 64%
    07:00 +14°C° 0 mm 3 m/s 764 mmHg 66%
    08:00 +16°C° 0 mm 3 m/s 765 mmHg 62%
    09:00 +18°C° 0 mm 3 m/s 765 mmHg 58%
    10:00 +20°C° 0 mm 3 m/s 765 mmHg 54%
    11:00 +21°C° 0 mm 2 m/s 765 mmHg 50%
    12:00 +24°C° 0 mm 1 m/s 764 mmHg 46%
    13:00 +25°C° 0 mm 1 m/s 764 mmHg 42%
    14:00 +25°C° 0 mm 1 m/s 764 mmHg 43%
    15:00 +24°C° 0 mm 1 m/s 764 mmHg 45%
    16:00 +24°C° 0 mm 2 m/s 763 mmHg 47%
    17:00 +23°C° 0 mm 2 m/s 764 mmHg 51%
    18:00 +21°C° 0 mm 1 m/s 764 mmHg 56%
    19:00 +19°C° 0 mm 1 m/s 764 mmHg 61%
    20:00 +19°C° 0 mm 1 m/s 765 mmHg 61%
    21:00 +19°C° 0 mm 1 m/s 765 mmHg 61%
    22:00 +18°C° 0 mm 1 m/s 765 mmHg 61%
    23:00 +18°C° 0 mm 1 m/s 765 mmHg 60%

    26 Novembre, Dimanche

    Heure Température Précipitation Vent Pression Humidité
    00:00 +18°C° 0 mm 1 m/s 765 mmHg 60%
    01:00 +18°C° 0 mm 1 m/s 765 mmHg 60%
    02:00 +16°C° 0 mm 1 m/s 765 mmHg 59%
    03:00 +16°C° 0 mm 2 m/s 765 mmHg 59%
    04:00 +16°C° 0 mm 2 m/s 765 mmHg 59%
    05:00 +16°C° 0 mm 2 m/s 765 mmHg 59%
    06:00 +15°C° 0 mm 2 m/s 765 mmHg 60%
    07:00 +15°C° 0 mm 2 m/s 766 mmHg 60%
    08:00 +18°C° 0 mm 1 m/s 766 mmHg 56%
    09:00 +19°C° 0 mm 1 m/s 766 mmHg 52%
    10:00 +21°C° 0 mm 1 m/s 766 mmHg 49%
    11:00 +22°C° 0 mm 1 m/s 766 mmHg 46%
    12:00 +23°C° 0 mm 1 m/s 766 mmHg 43%
    13:00 +24°C° 0 mm 1 m/s 765 mmHg 41%
    14:00 +23°C° 0 mm 1 m/s 765 mmHg 44%
    15:00 +23°C° 0 mm 1 m/s 765 mmHg 47%
    16:00 +22°C° 0 mm 1 m/s 765 mmHg 50%
    17:00 +21°C° 0 mm 1 m/s 765 mmHg 55%
    18:00 +19°C° 0 mm 1 m/s 766 mmHg 61%
    19:00 +18°C° 0 mm 1 m/s 766 mmHg 66%
    20:00 +16°C° 0 mm 1 m/s 766 mmHg 67%
    21:00 +16°C° 0 mm 1 m/s 766 mmHg 68%
    22:00 +16°C° 0 mm 1 m/s 766 mmHg 68%
    23:00 +16°C° 0 mm 1 m/s 766 mmHg 67%
    Voir plus